Location: Unspecified
(20.0000°S, 0.0000°E)
Time: 13:39:37
(UTC+00:00)

NO-84 - Visible Passes

Search period start: 18 August 2019 00:00
Search period end: 28 August 2019 00:00
Orbit: 329 x 517 km, 55.0° (Epoch: 14 August)

Date Brightness Start Highest point End Pass type
(mag) Time Alt. Az. Time Alt. Az. Time Alt. Az.
19 Aug ? 18:48:27 10° W 18:50:24 13° WNW 18:52:19 10° NNW visible
23 Aug ? 05:51:27 10° N 05:54:01 24° ENE 05:56:44 10° ESE visible
24 Aug ? 05:07:14 10° NE 05:08:04 11° ENE 05:08:54 10° ENE visible
26 Aug ? 05:09:11 11° NNW 05:11:59 60° ENE 05:15:09 10° SE visible
27 Aug ? 04:26:21 22° ENE 04:26:21 22° ENE 04:28:31 10° ESE visible
